Regional Weather Roundup
Issued by NWS Cleveland, OH

Home | Current Version | Previous Version | Graphics & Text | Print | Product List | Glossary On
Versions: 1 2 3 4 5 6 7 8 9 10 11 12 13 14 15 16 17 18 19 20 21 22 23 24 25 26 27 28 29 30 31 32 33 34 35 36 37 38 39 40 41 42 43 44 45 46 47 48 49 50
000
ASUS41 KCLE 062102
RWRCLE
OHIO REGIONAL WEATHER ROUNDUP
NATIONAL WEATHER SERVICE CLEVELAND, OH
500 PM EDT MON JUL 06 2015

NOTE: "FAIR" INDICATES FEW OR NO CLOUDS BELOW 12,000 FEET WITH NO
SIGNIFICANT WEATHER AND/OR OBSTRUCTIONS TO VISIBILITY.

OHZ001>008-015>018-024>027-034-035-043-044-062200-
   NORTHWEST OHIO

CITY           SKY/WX    TMP DP  RH WIND       PRES   REMARKS
DEFIANCE       SUNNY     85  64  49 S7G17     29.98F
FINDLAY        SUNNY     84  61  45 SW7       30.00F
TOLEDO EXPRESS SUNNY     83  61  47 S8        29.98F
TOLEDO EXEC    SUNNY     84  59  42 VRB6      30.00F
LIMA           SUNNY     83  64  52 SW9       30.01F
$$

OHZ009>014-019>023-028>033-038-089-062200-
   NORTHEAST OHIO

CITY           SKY/WX    TMP DP  RH WIND       PRES   REMARKS
CLE-HOPKINS    MOSUNNY   81  62  52 N8        30.03F
CLE-LAKEFRONT  SUNNY     78  66  66 NE7       30.01F
CUY CO. ARPT   MOSUNNY   82  61  47 N10       30.03F
LORAIN-ELYRIA  SUNNY     83  64  52 N7        30.01F
ASHTABULA      TSTM      69  64  84 S5        30.06R
AKRON-CANTON   PTSUNNY   85  63  47 W6        30.03S
WOOSTER        SUNNY     83  67  58 W9        30.03F
MANSFIELD      SUNNY     83  64  52 W7        30.04F
YOUNGSTOWN     CLOUDY    77  67  71 SE6       30.04S THUNDER
$$

OHZ042-051>053-060>062-070>072-077>081-062200-
  SOUTHWEST OHIO

CITY           SKY/WX    TMP DP  RH WIND       PRES   REMARKS
CINC-COVINGTON MOSUNNY   83  66  56 SW5       30.04F
CINC-LUNKEN    MOSUNNY   83  65  54 S7        30.02F
HAMILTON       MOSUNNY   85  67  54 VRB5      30.02F
DAYTON         MOSUNNY   84  65  52 SW9       30.04F
WRIGHT-PAT AFB NOT AVBL
DAYTON GENERAL SUNNY     83  63  50 VRB6      30.03F
WILMINGTON     MOSUNNY   82  61  48 SW9       30.04F
$$

OHZ036-037-039>041-045>050-054>059-063>069-073>076-082>088-062200-
  CENTRAL AND SOUTHEAST OHIO

CITY           SKY/WX    TMP DP  RH WIND       PRES   REMARKS
COLUMBUS       MOSUNNY   83  64  52 W8        30.01F
OSU AIRPORT    SUNNY     83  62  49 W12       30.03F
BOLTON FIELD   NOT AVBL
RICKENBACK AFB NOT AVBL
NEWARK         MOSUNNY   87  65  47 W7        30.01F
MARION         SUNNY     83  58  42 W10       30.03F
LANCASTER      MOSUNNY   83  65  54 W10       30.03F
ZANESVILLE     NOT AVBL
NEW PHILLY     LGT RAIN  80  70  71 CALM      30.03R
$$


USA.gov is the U.S. government's official web portal to all federal, state and local government web resources and services.